| time (UTC) | temp C | wind direction | speed KPH | gust KPH | rain 1hr cm | rain 24hr cm | rain mn cm | humidity % | barometer mb |
| 20260902233329 | 26 | 318 | 0.0 | 1.6 | 0.00 | 0.00 | 0.00 | 73 | 1012.5 |
| 20260902231328 | 26 | 318 | 0.0 | 1.6 | 0.00 | 0.00 | 0.00 | 73 | 1012.5 |
| 20260902225329 | 26 | 318 | 0.0 | 0.0 | 0.00 | 0.00 | 0.00 | 72 | 1012.6 |
| 20260902224330 | 26 | 318 | 0.0 | 0.0 | 0.00 | 0.00 | 0.00 | 72 | 1012.5 |
| 20260902223329 | 26 | 318 | 0.0 | 0.0 | 0.00 | 0.00 | 0.00 | 72 | 1012.6 |
| 20260902222329 | 27 | 319 | 0.0 | 1.6 | 0.00 | 0.00 | 0.00 | 72 | 1012.6 |
| 20260902220328 | 27 | 318 | 0.0 | 1.6 | 0.00 | 0.00 | 0.00 | 71 | 1012.8 |
| 20260902215329 | 27 | 319 | 0.0 | 0.0 | 0.00 | 0.00 | 0.00 | 71 | 1012.8 |
| 20260902214329 | 27 | 319 | 0.0 | 0.0 | 0.00 | 0.00 | 0.00 | 70 | 1013.0 |
| 20260902213329 | 27 | 319 | 0.0 | 1.6 | 0.00 | 0.00 | 0.00 | 70 | 1012.9 |
| 20260902212330 | 27 | 319 | 0.0 | 0.0 | 0.00 | 0.00 | 0.00 | 69 | 1012.9 |
| 20260902211329 | 27 | 319 | 0.0 | 1.6 | 0.00 | 0.00 | 0.00 | 69 | 1012.9 |
| 20260902210329 | 27 | 318 | 0.0 | 0.0 | 0.00 | 0.00 | 0.00 | 69 | 1013.0 |
| 20260902205329 | 27 | 319 | 0.0 | 0.0 | 0.00 | 0.00 | 0.00 | 68 | 1013.0 |
| 20260902204328 | 27 | 318 | 0.0 | 1.6 | 0.00 | 0.00 | 0.00 | 69 | 1013.0 |
| 20260902202330 | 27 | 318 | 0.0 | 1.6 | 0.00 | 0.00 | 0.00 | 68 | 1013.0 |
| 20260902201329 | 27 | 318 | 0.0 | 0.0 | 0.00 | 0.00 | 0.00 | 68 | 1013.2 |
| 20260902200329 | 27 | 318 | 0.0 | 0.0 | 0.00 | 0.00 | 0.00 | 68 | 1013.1 |
| 20260902195329 | 27 | 318 | 0.0 | 0.0 | 0.00 | 0.00 | 0.00 | 67 | 1013.0 |
| 20260902194328 | 28 | 318 | 0.0 | 0.0 | 0.00 | 0.00 | 0.00 | 67 | 1013.1 |
| 20260902193329 | 28 | 318 | 0.0 | 1.6 | 0.00 | 0.00 | 0.00 | 67 | 1013.1 |
| 20260902192328 | 28 | 318 | 0.0 | 1.6 | 0.00 | 0.00 | 0.00 | 67 | 1013.1 |
| 20260902191328 | 28 | 318 | 0.0 | 3.2 | 0.00 | 0.00 | 0.00 | 67 | 1013.2 |
| 20260902190329 | 28 | 319 | 0.0 | 1.6 | 0.00 | 0.00 | 0.00 | 67 | 1013.4 |
| 20260902185329 | 28 | 319 | 0.0 | 1.6 | 0.00 | 0.00 | 0.00 | 67 | 1013.3 |
| 20260902184330 | 28 | 319 | 0.0 | 1.6 | 0.00 | 0.00 | 0.00 | 67 | 1013.2 |
| 20260902183329 | 28 | 319 | 0.0 | 1.6 | 0.00 | 0.00 | 0.00 | 66 | 1013.2 |
| 20260902181329 | 28 | 319 | 0.0 | 1.6 | 0.00 | 0.00 | 0.00 | 66 | 1013.2 |
| 20260902180328 | 28 | 319 | 0.0 | 3.2 | 0.00 | 0.00 | 0.00 | 66 | 1013.1 |
| 20260902175329 | 28 | 319 | 0.0 | 4.8 | 0.00 | 0.00 | 0.00 | 66 | 1013.1 |
| 20260902174328 | 28 | 318 | 0.0 | 3.2 | 0.00 | 0.00 | 0.00 | 66 | 1013.0 |
| 20260902173328 | 28 | 318 | 0.0 | 4.8 | 0.00 | 0.00 | 0.00 | 66 | 1012.9 |
| 20260902172328 | 29 | 317 | 0.0 | 4.8 | 0.00 | 0.00 | 0.00 | 66 | 1012.9 |
| 20260902171329 | 29 | 322 | 0.0 | 4.8 | 0.00 | 0.00 | 0.00 | 65 | 1012.8 |
| 20260902165328 | 29 | 324 | 0.0 | 3.2 | 0.00 | 0.00 | 0.00 | 65 | 1012.6 |
| 20260902164329 | 29 | 321 | 0.0 | 8.0 | 0.00 | 0.00 | 0.00 | 65 | 1012.6 |
| 20260902163329 | 30 | 324 | 0.0 | 8.0 | 0.00 | 0.00 | 0.00 | 64 | 1012.6 |
| 20260902162329 | 30 | 317 | 4.8 | 9.7 | 0.00 | 0.00 | 0.00 | 64 | 1012.5 |
| 20260902160328 | 30 | 323 | 1.6 | 9.7 | 0.00 | 0.00 | 0.00 | 63 | 1012.3 |
| 20260902155328 | 30 | 333 | 4.8 | 12.9 | 0.00 | 0.00 | 0.00 | 62 | 1012.3 |
| 20260902154329 | 30 | 317 | 4.8 | 19.3 | 0.00 | 0.00 | 0.00 | 62 | 1012.4 |
| 20260902153328 | 30 | 328 | 4.8 | 16.1 | 0.00 | 0.00 | 0.00 | 61 | 1012.5 |
| 20260902152328 | 31 | 321 | 3.2 | 12.9 | 0.00 | 0.00 | 0.00 | 61 | 1012.5 |
| 20260902151328 | 31 | 323 | 8.0 | 16.1 | 0.00 | 0.00 | 0.00 | 60 | 1012.4 |
| 20260902150328 | 31 | 328 | 4.8 | 14.5 | 0.00 | 0.00 | 0.00 | 59 | 1012.4 |
| 20260902145328 | 31 | 307 | 6.4 | 19.3 | 0.00 | 0.00 | 0.00 | 59 | 1012.3 |
| 20260902144329 | 31 | 318 | 8.0 | 19.3 | 0.00 | 0.00 | 0.00 | 59 | 1012.4 |
| 20260902143328 | 31 | 325 | 4.8 | 16.1 | 0.00 | 0.00 | 0.00 | 58 | 1012.3 |
| 20260902142328 | 32 | 321 | 8.0 | 19.3 | 0.00 | 0.00 | 0.00 | 58 | 1012.2 |
| 20260902140328 | 32 | 324 | 9.7 | 19.3 | 0.00 | 0.00 | 0.00 | 57 | 1012.2 |
| 20260902134328 | 32 | 340 | 9.7 | 20.9 | 0.00 | 0.00 | 0.00 | 56 | 1012.3 |
| 20260902133328 | 32 | 330 | 11.3 | 19.3 | 0.00 | 0.00 | 0.00 | 55 | 1012.2 |
| 20260902131328 | 33 | 312 | 8.0 | 24.1 | 0.00 | 0.00 | 0.00 | 54 | 1012.2 |
| 20260902130328 | 33 | 314 | 6.4 | 19.3 | 0.00 | 0.00 | 0.00 | 53 | 1012.4 |
| 20260902125329 | 33 | 311 | 11.3 | 20.9 | 0.00 | 0.00 | 0.00 | 53 | 1012.3 |
| 20260902124329 | 33 | 327 | 9.7 | 19.3 | 0.00 | 0.00 | 0.00 | 53 | 1012.4 |
| 20260902123328 | 34 | 321 | 9.7 | 19.3 | 0.00 | 0.00 | 0.00 | 52 | 1012.4 |
| 20260902122328 | 34 | 306 | 9.7 | 19.3 | 0.00 | 0.00 | 0.00 | 52 | 1012.3 |
| 20260902121328 | 33 | 305 | 9.7 | 16.1 | 0.00 | 0.00 | 0.00 | 53 | 1012.4 |
| 20260902120328 | 33 | 316 | 8.0 | 20.9 | 0.00 | 0.00 | 0.00 | 54 | 1012.5 |
| 20260902115328 | 33 | 2 | 6.4 | 20.9 | 0.00 | 0.00 | 0.00 | 54 | 1012.5 |
| 20260902114328 | 33 | 305 | 12.9 | 22.5 | 0.00 | 0.00 | 0.00 | 56 | 1012.7 |
| 20260902113328 | 32 | 337 | 6.4 | 19.3 | 0.00 | 0.00 | 0.00 | 57 | 1012.6 |
| 20260902112328 | 32 | 319 | 6.4 | 19.3 | 0.00 | 0.00 | 0.00 | 58 | 1012.6 |
| 20260902111328 | 32 | 310 | 8.0 | 20.9 | 0.00 | 0.00 | 0.00 | 58 | 1012.7 |
| 20260902110328 | 32 | 297 | 9.7 | 20.9 | 0.00 | 0.00 | 0.00 | 59 | 1012.7 |
| 20260902103328 | 31 | 307 | 8.0 | 20.9 | 0.00 | 0.00 | 0.00 | 61 | 1013.1 |
| 20260902102328 | 31 | 331 | 8.0 | 16.1 | 0.00 | 0.00 | 0.00 | 62 | 1013.0 |
| 20260902101328 | 31 | 294 | 6.4 | 19.3 | 0.00 | 0.00 | 0.00 | 62 | 1013.1 |
| 20260902100328 | 31 | 304 | 6.4 | 16.1 | 0.00 | 0.00 | 0.00 | 63 | 1013.2 |
| 20260902095328 | 31 | 289 | 8.0 | 16.1 | 0.00 | 0.00 | 0.00 | 63 | 1013.3 |
| 20260902094327 | 31 | 336 | 8.0 | 19.3 | 0.00 | 0.00 | 0.00 | 64 | 1013.3 |
| 20260902093328 | 30 | 302 | 8.0 | 19.3 | 0.00 | 0.00 | 0.00 | 65 | 1013.4 |
| 20260902092328 | 30 | 281 | 9.7 | 16.1 | 0.00 | 0.00 | 0.00 | 65 | 1013.5 |
| 20260902091328 | 30 | 314 | 8.0 | 19.3 | 0.00 | 0.00 | 0.00 | 65 | 1013.5 |
| 20260902090327 | 30 | 306 | 8.0 | 16.1 | 0.00 | 0.00 | 0.00 | 65 | 1013.6 |
| 20260902085328 | 30 | 313 | 8.0 | 12.9 | 0.00 | 0.00 | 0.00 | 65 | 1013.6 |
| 20260902084328 | 30 | 293 | 4.8 | 19.3 | 0.00 | 0.00 | 0.00 | 65 | 1013.7 |
| 20260902082328 | 30 | 305 | 4.8 | 12.9 | 0.00 | 0.00 | 0.00 | 66 | 1013.7 |
| 20260902081328 | 30 | 265 | 3.2 | 14.5 | 0.00 | 0.00 | 0.00 | 66 | 1014.0 |
| 20260902075328 | 29 | 294 | 1.6 | 11.3 | 0.00 | 0.00 | 0.00 | 67 | 1013.9 |
| 20260902073328 | 29 | 319 | 1.6 | 4.8 | 0.00 | 0.00 | 0.00 | 67 | 1014.0 |
| 20260902072328 | 28 | 319 | 1.6 | 11.3 | 0.00 | 0.00 | 0.00 | 68 | 1013.9 |
| 20260902070328 | 28 | 308 | 1.6 | 9.7 | 0.00 | 0.00 | 0.00 | 69 | 1013.9 |
| 20260902065328 | 28 | 309 | 0.0 | 4.8 | 0.00 | 0.00 | 0.00 | 71 | 1014.0 |
| 20260902063327 | 27 | 307 | 0.0 | 4.8 | 0.00 | 0.00 | 0.00 | 71 | 1014.0 |
| 20260902062327 | 27 | 307 | 0.0 | 8.0 | 0.00 | 0.00 | 0.00 | 73 | 1014.1 |
| 20260902060328 | 27 | 329 | 0.0 | 3.2 | 0.00 | 0.00 | 0.00 | 74 | 1014.1 |
| 20260902055328 | 27 | 330 | 0.0 | 4.8 | 0.00 | 0.00 | 0.00 | 74 | 1014.1 |
| 20260902054328 | 27 | 330 | 0.0 | 1.6 | 0.00 | 0.00 | 0.00 | 75 | 1014.1 |
| 20260902053328 | 26 | 330 | 0.0 | 1.6 | 0.00 | 0.00 | 0.00 | 75 | 1014.0 |
| 20260902052328 | 26 | 330 | 0.0 | 1.6 | 0.00 | 0.00 | 0.00 | 75 | 1014.1 |
| 20260902051328 | 26 | 330 | 0.0 | 1.6 | 0.00 | 0.00 | 0.00 | 75 | 1014.0 |
| 20260902044327 | 25 | 330 | 0.0 | 0.0 | 0.00 | 0.00 | 0.00 | 75 | 1014.0 |
| 20260902043328 | 25 | 330 | 0.0 | 1.6 | 0.00 | 0.00 | 0.00 | 75 | 1014.1 |
| 20260902042327 | 25 | 330 | 0.0 | 0.0 | 0.00 | 0.00 | 0.00 | 75 | 1014.0 |
| 20260902041328 | 25 | 330 | 0.0 | 0.0 | 0.00 | 0.00 | 0.00 | 75 | 1014.0 |
| 20260902040327 | 25 | 330 | 0.0 | 0.0 | 0.00 | 0.00 | 0.00 | 75 | 1013.9 |
| 20260902034328 | 25 | 330 | 0.0 | 0.0 | 0.00 | 0.00 | 0.00 | 74 | 1013.9 |
| 20260902033328 | 25 | 330 | 0.0 | 0.0 | 0.00 | 0.00 | 0.00 | 74 | 1013.8 |
| 20260902032328 | 25 | 330 | 0.0 | 0.0 | 0.00 | 0.00 | 0.00 | 74 | 1013.8 |
| 20260902031328 | 25 | 330 | 0.0 | 0.0 | 0.00 | 0.00 | 0.00 | 74 | 1013.7 |
| 20260902030328 | 25 | 330 | 0.0 | 0.0 | 0.00 | 0.00 | 0.00 | 74 | 1013.7 |
| 20260902025328 | 25 | 330 | 0.0 | 0.0 | 0.00 | 0.00 | 0.00 | 73 | 1013.6 |
| 20260902024328 | 25 | 330 | 0.0 | 0.0 | 0.00 | 0.00 | 0.00 | 73 | 1013.5 |
| 20260902022327 | 25 | 330 | 0.0 | 0.0 | 0.00 | 0.00 | 0.00 | 73 | 1013.4 |
| 20260902021327 | 25 | 330 | 0.0 | 0.0 | 0.00 | 0.00 | 0.00 | 73 | 1013.4 |
| 20260902020327 | 25 | 330 | 0.0 | 0.0 | 0.00 | 0.00 | 0.00 | 73 | 1013.4 |
| 20260902014328 | 25 | 330 | 0.0 | 3.2 | 0.00 | 0.00 | 0.00 | 73 | 1013.3 |
| 20260902013327 | 25 | 330 | 0.0 | 0.0 | 0.00 | 0.00 | 0.00 | 72 | 1013.3 |
| 20260902011327 | 25 | 330 | 0.0 | 0.0 | 0.00 | 0.00 | 0.00 | 72 | 1013.3 |
| 20260902010328 | 25 | 330 | 0.0 | 0.0 | 0.00 | 0.00 | 0.00 | 72 | 1013.4 |
| 20260902005328 | 26 | 330 | 0.0 | 0.0 | 0.00 | 0.00 | 0.00 | 72 | 1013.3 |
| 20260902004327 | 26 | 330 | 0.0 | 0.0 | 0.00 | 0.00 | 0.00 | 71 | 1013.4 |
| 20260902003327 | 26 | 330 | 0.0 | 0.0 | 0.00 | 0.00 | 0.00 | 72 | 1013.4 |
| 20260902002327 | 26 | 330 | 0.0 | 0.0 | 0.00 | 0.00 | 0.00 | 71 | 1013.3 |
| 20260902001327 | 26 | 330 | 0.0 | 1.6 | 0.00 | 0.00 | 0.00 | 71 | 1013.3 |
| 20260902000329 | 26 | 330 | 0.0 | 0.0 | 0.00 | 0.00 | 0.00 | 70 | 1013.3 |